Torna al catalogo

CZ-6A DEB

AttivoSSO
NORAD 56636·DEBRIS·🇨🇳 China

Lanciato Nov 11, 2022 da Taiyuan Satellite Launch Center

Loading…

Prossimi Passaggi (prossime 24 ore)

TLE

AggiornatoSource: Space-Track

Epoca: Sep 14, 2026, 10:21 UTC

1 56636U 22151AFL 26257.43179139  .00000973  00000-0  53246-3 0  9998
2 56636  98.8404 253.3598 0074915 117.3241 243.5583 14.12799240179502

Traccia CZ-6A DEB in tempo reale con AllMySat

Download on the App Store